Vorticity
8 7 7 6 6 5 6 6 5 4 4 4 4 5 5 4 3 4 5 4 4 3 1 0 2 6 11 13 11 7 5 5 5 5 5 4 4 7 7 4 3 5
8 7 7 7 7 6 6 6 5 5 4 4 4 5 4 5 5 5 5 5 4 5 3 1 -0 2 7 13 14 11 6 5 5 6 6 4 3 5 7 6 3 3
7 6 6 6 5 5 5 6 8 7 6 6 6 5 5 6 7 7 6 6 5 4 4 3 -0 -1 1 7 14 15 10 5 5 5 6 5 3 4 7 8 4 1
6 7 7 7 5 4 5 6 7 7 7 8 7 7 7 6 5 6 6 6 6 5 5 6 3 -1 -1 1 7 15 15 9 5 4 6 6 4 3 5 8 5 1
5 6 7 7 6 5 6 6 5 5 5 5 5 6 7 8 7 6 6 6 6 5 5 6 5 2 -0 -1 0 8 15 14 8 4 5 5 4 3 4 7 6 2
6 6 6 6 6 6 6 6 5 5 6 5 5 5 5 6 7 7 7 7 6 6 5 6 6 5 2 0 -1 1 9 16 13 6 4 5 5 3 3 5 6 3
6 6 6 6 6 7 7 7 8 8 9 9 10 10 9 7 7 6 7 7 7 7 6 5 6 6 4 2 0 -1 3 11 15 10 4 4 5 4 3 4 5 3
5 5 5 6 6 7 7 7 8 9 9 10 11 12 12 12 11 8 7 7 7 7 7 6 6 7 7 5 3 1 -0 5 13 13 7 4 5 4 2 3 5 4
6 6 5 6 6 5 6 6 7 8 8 9 11 12 14 15 14 12 9 7 6 7 7 7 7 7 8 8 6 4 1 2 10 14 10 5 5 5 4 3 5 4
8 9 8 7 6 4 5 6 6 7 7 8 10 12 15 15 15 14 12 10 8 8 8 8 8 7 7 8 8 6 3 2 8 13 12 7 4 4 4 3 4 5
9 11 10 8 6 4 4 5 7 7 8 9 10 11 13 14 15 15 15 14 12 10 10 9 9 9 9 10 10 9 6 4 7 13 14 10 5 4 5 3 4 5
9 11 12 10 6 4 4 6 8 8 8 10 11 13 14 14 14 15 17 18 17 16 17 15 12 12 12 11 10 10 8 6 8 13 15 13 7 4 5 4 3 5
8 10 12 10 6 5 5 6 7 8 10 12 12 14 15 14 13 13 14 15 16 19 22 21 20 21 21 18 15 14 12 10 12 14 15 14 11 6 4 4 3 4
7 8 9 9 6 4 5 6 7 9 10 11 12 14 13 12 11 11 12 12 12 13 13 14 15 18 20 20 18 18 17 15 15 14 13 14 12 7 4 4 4 4
7 7 7 8 7 5 5 6 7 8 9 9 11 12 11 10 10 10 9 10 10 10 11 11 12 11 11 12 12 14 14 12 11 11 11 13 13 9 5 4 6 6
8 7 7 7 6 6 6 6 6 7 9 9 10 10 8 9 9 6 6 7 6 7 9 11 13 12 10 9 8 8 9 9 9 10 10 11 12 10 6 4 5 6
12 9 7 6 5 6 6 6 6 7 8 8 9 9 8 8 7 6 6 5 3 3 5 6 9 10 10 10 9 8 7 7 7 9 10 10 11 11 9 6 5 5
16 11 8 6 5 5 7 7 5 6 7 7 7 8 8 8 7 7 4 1 1 3 3 3 4 5 7 8 9 10 10 9 8 8 8 8 10 11 10 8 6 5
17 13 10 8 5 4 6 7 7 7 7 7 5 6 7 7 5 3 1 1 1 1 1 3 3 4 5 5 6 7 8 9 11 11 10 9 9 9 9 8 7 5
14 13 12 9 6 4 6 9 9 7 6 5 4 4 7 7 5 2 2 1 1 1 2 3 3 3 5 6 5 5 5 6 8 10 13 13 11 9 9 8 7 6
13 15 13 8 6 6 7 10 10 8 8 7 6 6 6 6 4 3 3 1 1 2 3 4 4 4 4 6 6 4 1 1 2 4 8 13 14 13 11 10 9 8
15 15 11 6 8 9 10 12 13 12 12 9 6 6 5 4 4 4 3 3 2 2 3 4 4 2 3 8 10 8 4 3 3 1 2 7 11 12 12 11 10 9
18 18 14 10 12 14 15 16 14 12 12 10 8 8 6 5 4 3 3 3 1 0 1 1 -0 2 8 10 9 8 7 8 9 6 2 3 6 9 10 10 8 9
11 14 17 17 16 16 14 13 11 10 9 8 8 8 7 8 8 7 8 8 5 2 3 3 2 2 5 7 6 4 3 4 7 8 7 5 5 7 8 7 7 7
5 8 15 20 20 17 14 10 8 7 7 6 6 6 6 7 7 8 8 8 9 7 4 4 4 3 3 4 3 4 5 5 4 4 7 7 6 7 9 7 6 5
6 9 15 20 18 14 11 9 7 5 5 5 5 5 6 6 6 8 8 9 11 12 9 4 1 1 3 3 1 3 9 10 9 8 8 8 8 10 12 12 9 7
Height
5921 5923 5924 5925 5926 5927 5928 5929 5930 5931 5932 5933 5934 5935 5936 5936 5937 5938 5938 5939 5939 5940 5940 5940 5940 5940 5939 5939 5939 5939 5939 5939 5939 5939 5939 5939 5939 5939 5938 5938 5938 5938
5920 5922 5923 5924 5925 5927 5928 5928 5929 5930 5931 5932 5933 5934 5934 5935 5936 5937 5937 5938 5938 5939 5939 5939 5939 5939 5939 5939 5939 5939 5938 5938 5938 5938 5938 5938 5938 5938 5938 5938 5938 5938
5919 5921 5922 5923 5924 5925 5926 5927 5928 5929 5930 5931 5932 5933 5933 5934 5935 5935 5936 5936 5937 5938 5938 5938 5938 5938 5938 5938 5938 5938 5938 5938 5937 5937 5937 5937 5938 5938 5938 5938 5938 5938
5918 5919 5921 5922 5923 5924 5925 5927 5928 5929 5929 5930 5931 5932 5932 5933 5933 5934 5934 5935 5936 5936 5937 5937 5937 5937 5937 5937 5937 5937 5937 5937 5936 5937 5937 5937 5937 5937 5937 5937 5937 5937
5917 5918 5920 5921 5922 5923 5925 5926 5927 5927 5928 5929 5930 5931 5931 5931 5932 5932 5933 5933 5934 5934 5935 5935 5936 5936 5936 5936 5936 5936 5936 5936 5936 5935 5935 5935 5935 5936 5936 5936 5936 5936
5916 5917 5919 5920 5921 5922 5923 5924 5925 5926 5927 5928 5929 5929 5930 5930 5930 5931 5931 5931 5932 5932 5933 5933 5934 5934 5934 5934 5934 5934 5934 5934 5934 5934 5934 5934 5934 5934 5934 5935 5935 5935
5915 5916 5917 5918 5919 5920 5921 5922 5923 5924 5925 5926 5926 5927 5928 5928 5928 5929 5929 5929 5930 5930 5931 5931 5932 5932 5932 5932 5932 5933 5933 5933 5933 5933 5933 5933 5933 5933 5933 5933 5934 5934
5914 5915 5916 5917 5918 5919 5919 5920 5921 5922 5922 5923 5924 5925 5925 5926 5926 5926 5927 5927 5927 5928 5929 5929 5930 5930 5930 5930 5930 5931 5931 5931 5931 5932 5931 5931 5931 5931 5931 5931 5932 5932
5912 5913 5914 5915 5916 5917 5918 5918 5919 5919 5920 5921 5921 5922 5923 5923 5923 5924 5924 5925 5925 5926 5926 5927 5928 5928 5928 5929 5929 5928 5929 5929 5929 5930 5930 5930 5930 5930 5930 5930 5930 5930
5911 5912 5912 5914 5915 5915 5916 5916 5916 5917 5918 5918 5919 5919 5920 5920 5921 5921 5921 5922 5923 5923 5924 5924 5925 5925 5926 5926 5926 5926 5926 5926 5927 5927 5928 5928 5928 5928 5928 5929 5929 5929
5910 5910 5911 5912 5913 5914 5914 5914 5915 5916 5916 5916 5917 5917 5917 5917 5918 5918 5919 5919 5920 5920 5921 5921 5922 5923 5923 5923 5924 5924 5924 5924 5924 5925 5925 5926 5926 5926 5927 5927 5927 5927
5908 5909 5910 5911 5911 5912 5912 5913 5913 5914 5915 5915 5915 5915 5915 5915 5916 5916 5917 5917 5917 5918 5918 5919 5919 5920 5921 5921 5921 5921 5922 5922 5922 5923 5923 5924 5924 5924 5925 5925 5925 5925
5906 5907 5908 5908 5909 5910 5910 5911 5912 5913 5913 5913 5913 5913 5914 5914 5914 5914 5915 5915 5915 5916 5916 5917 5917 5918 5918 5918 5918 5919 5919 5920 5920 5920 5921 5921 5922 5922 5922 5923 5923 5923
5904 5904 5905 5906 5906 5907 5908 5909 5910 5910 5911 5911 5911 5912 5912 5912 5913 5913 5913 5914 5914 5914 5915 5915 5916 5916 5916 5916 5916 5916 5917 5917 5917 5918 5918 5919 5919 5920 5920 5920 5921 5921
5900 5901 5902 5903 5904 5905 5906 5906 5907 5908 5908 5909 5909 5910 5910 5911 5911 5911 5912 5912 5912 5913 5913 5914 5914 5915 5915 5915 5914 5914 5915 5915 5915 5915 5916 5916 5917 5917 5917 5918 5918 5918
5897 5898 5899 5900 5901 5903 5903 5904 5904 5905 5906 5907 5908 5908 5908 5909 5909 5910 5910 5911 5911 5911 5912 5912 5913 5913 5913 5913 5913 5913 5913 5913 5913 5913 5913 5913 5914 5914 5914 5915 5915 5915
5894 5896 5897 5898 5899 5900 5901 5901 5901 5902 5903 5904 5905 5906 5906 5907 5907 5908 5908 5909 5909 5910 5910 5911 5912 5912 5912 5912 5912 5911 5911 5911 5911 5911 5911 5911 5911 5911 5912 5912 5912 5912
5892 5893 5894 5895 5896 5897 5898 5898 5898 5899 5901 5902 5903 5904 5904 5905 5905 5906 5907 5907 5908 5909 5909 5910 5910 5910 5910 5910 5910 5910 5909 5909 5909 5909 5909 5909 5908 5909 5909 5909 5908 5909
5889 5890 5891 5893 5893 5894 5894 5895 5896 5897 5898 5900 5901 5901 5902 5903 5903 5904 5905 5905 5906 5907 5907 5908 5908 5909 5909 5909 5908 5908 5907 5907 5906 5906 5906 5906 5906 5906 5906 5906 5905 5905
5886 5888 5889 5890 5891 5891 5892 5893 5894 5895 5896 5897 5898 5899 5900 5901 5902 5902 5902 5903 5904 5904 5905 5906 5906 5906 5907 5907 5906 5906 5905 5904 5904 5903 5904 5904 5904 5904 5903 5903 5903 5902
5884 5885 5886 5887 5888 5888 5889 5890 5892 5893 5894 5895 5896 5896 5898 5899 5899 5900 5900 5901 5901 5902 5902 5903 5904 5904 5904 5905 5904 5903 5902 5902 5901 5901 5901 5902 5902 5901 5900 5900 5900 5899
5881 5882 5883 5884 5885 5886 5887 5889 5890 5891 5892 5892 5893 5894 5895 5896 5897 5897 5898 5898 5899 5899 5899 5900 5901 5901 5901 5902 5902 5901 5900 5899 5899 5898 5899 5899 5899 5899 5898 5897 5897 5896
5879 5880 5881 5882 5883 5884 5885 5887 5887 5888 5889 5889 5890 5891 5892 5893 5894 5895 5895 5896 5896 5897 5897 5897 5898 5898 5898 5899 5899 5899 5897 5896 5896 5896 5896 5896 5896 5896 5895 5894 5893 5893
5876 5877 5878 5879 5880 5882 5883 5884 5884 5885 5886 5886 5887 5888 5889 5890 5891 5892 5892 5893 5894 5894 5894 5895 5894 5895 5896 5896 5897 5896 5895 5894 5893 5892 5892 5893 5893 5893 5892 5892 5890 5889
5874 5875 5876 5877 5878 5880 5880 5881 5881 5882 5883 5884 5885 5886 5887 5887 5888 5889 5890 5890 5891 5891 5892 5892 5892 5892 5892 5893 5893 5893 5892 5891 5889 5888 5888 5888 5888 5888 5888 5888 5887 5886
5871 5872 5873 5874 5876 5877 5877 5878 5879 5880 5880 5881 5882 5883 5884 5884 5885 5885 5886 5887 5887 5888 5889 5889 5889 5889 5889 5889 5889 5889 5889 5887 5885 5884 5885 5884 5882 5882 5882 5882 5882 5882